STARLINK-5508 (55639 NORAD) Tracking and Keplerian Element Data

This shows tracking and keplerian element data for the satellite.

Feedback or suggestion? Click here.




ElementValue
Catalog55639
NameSTARLINK-5508
Epoch Orbit624
Epoch Day85.04415137
Epoch Year2023
RAAN47.9535
Inclination70.0027
Eccentricity0.0004429
Argument of Perigee288.66
Mean Anonmoly71.4114
Mean Motion15.69951909
Decay Rate0.00031691
L11 55639U 23021M 23085.04415137 .00031691 00000+0 26397-3 0 9998
L22 55639 70.0027 47.9535 0004429 288.6600 71.4114 15.69951909 6242



Live tracking and technical data element details for STARLINK-5508 (NORAD 55639). STARLINK-5508 can be tracked NOW for your location showing map with azimuth and elevation plus other details from your city location.







IsCatalogInMostPopularTable: catalog: 55639, numindb: 2
Update: records affected: 1



GetName: 55639 STARLINK-5508

Hit Count: updated at: Tue, 28 Mar 2023 02:19:26 GMT